beeline.ru alexa rank chart, beeline.ru alexa rank daily changes

beeline.ru alexa rank chart, beeline.ru alexa rank daily changes

beeline.ru
Actual rank:
3 078

RANK HISTORY

Date Rank Diff
2017/08/17 3 078 +29
2017/08/16 3 049 +21
2017/08/15 3 028 +1
2017/08/14 3 027 +17
2017/08/13 3 010 +4
2017/08/12 3 006 +23
2017/08/11 2 983 +7
2017/08/10 2 976 +1
2017/08/09 2 975 +11
2017/08/08 2 964 +17
2017/08/07 2 947 -8
2017/08/06 2 955 +5
2017/08/05 2 950 +9
2017/08/04 2 941 +21
2017/08/03 2 920 +12
2017/08/02 2 908 +5
2017/07/31 2 903 -4
2017/07/30 2 907 +6
2017/07/29 2 901 +5
2017/07/28 2 896 -9
2017/07/27 2 905 +5
2017/07/26 2 900 -19
2017/07/25 2 919 -25
2017/07/24 2 944 -10
2017/07/22 2 954 +10
2017/07/21 2 944 +4
2017/07/20 2 940 +4
2017/07/19 2 936 +3
2017/07/18 2 933 -6
2017/07/17 2 939 -6
2017/07/16 2 945 +3
2017/07/15 2 942 -1
2017/07/14 2 943 -12
2017/07/13 2 955 +33
2017/07/12 2 922 +10
2017/07/11 2 912 +6
2017/07/10 2 906 +14
2017/07/09 2 892 +8
2017/07/08 2 884 +3
2017/07/07 2 881 +5
2017/07/06 2 876 +11
2017/07/05 2 865 +16
2017/07/04 2 849 +1
2017/07/03 2 848 +14
2017/07/02 2 834 +1
2017/07/01 2 833 +16
2017/06/30 2 817 +12
2017/06/29 2 805 -3
2017/06/28 2 808 +7
2017/06/27 2 801 +12
2017/06/26 2 789 +6
2017/06/25 2 783 -3
2017/06/24 2 786 -13
2017/06/23 2 799 -3
2017/06/22 2 802 -8
2017/06/21 2 810 -6
2017/06/20 2 816 -6
2017/06/19 2 822 -12
2017/06/18 2 834

WIDGET FOR YOUR SITE

DOMAINS WITH THE NEAREST RANK

Domain Rank
pptv.com 3 073
binnitu.tmall.com 3 074
hdpopcorns.com 3 075
sep.gob.mx 3 076
jobvite.com 3 077
beeline.ru 3 078
samehadaku.net 3 079
csc.gov.in 3 080
index.hr 3 081
myspace.com 3 082
q.gs 3 083

DOMAINS WITH THE NEAREST RANK BY TLD .ru

Domain Rank
farpost.ru 2 928
radikal.ru 2 988
babyblog.ru 3 006
imgsrc.ru 3 009
nalog.ru 3 039
beeline.ru 3 078
vz.ru 3 212
tiu.ru 3 223
ontvtime.ru 3 239
riafan.ru 3 240
multitran.ru 3 291